This is the latest recevied weather packets stored in our database for station/object EA1CUE-WX. If no packets are shown the sender has not sent any weather packets the latest 10 day(s).
| Time | Temp. | Humidity | Pressure | Rain* | Wind** | Luminosity | Snow |
|---|---|---|---|---|---|---|---|
| 1777710825 | 15.56° C | 7% | 1014.5 hPa | 0 mm | - | - | - |
| 1777710525 | 15° C | 1% | 1014.6 hPa | 0 mm | - | - | - |
| 1777710225 | 15° C | 1% | 1014.7 hPa | 0 mm | - | - | - |
| 1777709925 | 15° C | 1% | 1014.7 hPa | 0 mm | - | - | - |
| 1777709625 | 15° C | 1% | 1014.6 hPa | 0 mm | - | - | - |
| 1777709325 | 15° C | 1% | 1014.5 hPa | 0 mm | - | - | - |
| 1777709025 | 15° C | 1% | 1014.5 hPa | 0 mm | - | - | - |
| 1777708725 | 15° C | 1% | 1014.4 hPa | 0 mm | - | - | - |
| 1777708425 | 15° C | 1% | 1014.4 hPa | 0 mm | - | - | - |
| 1777708125 | 14.44° C | 1% | 1014.4 hPa | 0 mm | - | - | - |
| 1777707825 | 14.44° C | 1% | 1014.5 hPa | 0 mm | - | - | - |
| 1777707525 | 13.89° C | 1% | 1014.4 hPa | 0 mm | - | - | - |
| 1777707225 | 13.89° C | 1% | 1014.5 hPa | 0 mm | - | - | - |
| 1777706925 | 13.33° C | 1% | 1014.6 hPa | 0 mm | - | - | - |
| 1777706625 | 12.22° C | 1% | 1014.7 hPa | 0 mm | - | - | - |
| 1777706325 | 11.67° C | 1% | 1014.7 hPa | 0 mm | - | - | - |
| 1777706025 | 11.67° C | 1% | 1014.7 hPa | 0 mm | - | - | - |
| 1777705725 | 11.67° C | 1% | 1014.7 hPa | 0 mm | - | - | - |
| 1777705425 | 12.22° C | 1% | 1014.8 hPa | 0 mm | - | - | - |
| 1777705125 | 12.22° C | 1% | 1014.7 hPa | 0 mm | - | - | - |
| 1777704825 | 12.22° C | 1% | 1014.7 hPa | 0 mm | - | - | - |
| 1777704525 | 12.22° C | 1% | 1014.8 hPa | 0 mm | - | - | - |
| 1777704225 | 13.33° C | 1% | 1014.8 hPa | 0 mm | - | - | - |
| 1777703925 | 12.78° C | 1% | 1014.9 hPa | 0 mm | - | - | - |
| 1777703625 | 12.78° C | 1% | 1014.7 hPa | 0 mm | - | - | - |
* Rain latest hour (hover to see other rain measurements)
** Current wind speed in m/s (hover to see current wind gust speed)